This demonstration page uses our WeatherBlox Daily Observations layout. Learn more.

39.92423, -83.80882

Hourly Observations for December 14, 2019

Temp ( °F °C ) Dew Point ( °F °C ) Humidity (%) Winds ( mph kmh ) Pressure ( in mb ) Visibility ( mi km ) Precip ( " mm )
12:13 am 00:13 Cloudy with Rain 37 3 37 3 100 100 NNE 3 6 29.8 1009 5 8.0467 0.01 0.254
12:51 am 00:51 Cloudy with Rain 37 3 37 3 100 100 NNE 3 6 29.78 1008 3 4.82802 0.05 1.27
12:56 am 00:56 Cloudy with Rain 38 3.3 38 3.3 100 100 NNE 5 7 29.76 1008 2.5 4.02335 0.05 1.27
1:05 am 01:05 Cloudy with Rain 37 3 37 3 100 100 NNE 5 7 29.77 1008 2.5 4.02335 0.02 0.508
1:15 am 01:15 Cloudy with Rain 37 3 37 3 100 100 N 6 9 29.77 1008 3 4.82802 0.03 0.762
1:25 am 01:25 Cloudy with Rain 37 3 37 3 100 100 N 6 9 29.76 1008 2.5 4.02335 0.04 1.016
1:56 am 01:56 Cloudy with Rain 38 3.3 38 3.3 100 100 N 7 11 29.73 1007 2.5 4.02335 0.08 2.032
2:11 am 02:11 Cloudy with Light Rain 37 3 37 3 100 100 N 8 13 29.74 1007 3 4.82802 0.01 0.254
2:27 am 02:27 Cloudy with Light Rain 37 3 37 3 100 100 NNE 12 19 29.73 1007 6 9.65604 0.02 0.508
2:34 am 02:34 Cloudy with Light Rain 37 3 37 3 100 100 NNE 13 20 29.73 1007 8 12.87472 0.02 0.508
2:56 am 02:56 Cloudy with Light Rain 37 2.8 37 2.8 100 100 N 10 17 29.72 1006 7 11.26538 0.02 0.508
3:16 am 03:16 Cloudy with Light Rain 36 2 36 2 100 100 N 10 17 29.72 1007 7 11.26538 0.001 0.001
3:56 am 03:56 Cloudy with Light Rain 36 2.2 36 2.2 100 100 N 7 11 29.69 1005 7 11.26538 0.01 0.254
4:04 am 04:04 Cloudy with Light Rain 36 2 36 2 100 100 N 7 11 29.7 1006 8 12.87472 0.001 0.001
4:47 am 04:47 Cloudy with Light Rain 36 2 36 2 100 100 N 8 13 29.68 1005 9 14.48406 0.01 0.254
4:56 am 04:56 Cloudy with Light Rain 36 2.2 36 2.2 100 100 N 8 13 29.66 1004 10 16.0934 0.02 0.508
5:51 am 05:51 Cloudy with Light Rain 36 2 36 2 100 100 NNW 6 9 29.67 1005 10 16.0934 0.02 0.508
5:56 am 05:56 Cloudy with Light Rain 36 2.2 36 2.2 100 100 N 5 7 29.65 1004 10 16.0934 0.02 0.508
6:13 am 06:13 Cloudy with Light Rain 36 2 36 2 100 100 NNW 5 7 29.67 1005 9 14.48406 0.001 0.001
6:53 am 06:53 Cloudy with Light Rain 36 2 36 2 100 100 NW 5 7 29.67 1005 7 11.26538 0.02 0.508
6:56 am 06:56 Cloudy with Light Rain 36 2.2 36 2.2 100 100 NW 5 7 29.65 1004 7 11.26538 0.02 0.508
6:59 am 06:59 Cloudy with Light Rain 36 2 36 2 100 100 NW 5 7 29.67 1005 7 11.26538 0.001 0.001
7:10 am 07:10 Cloudy with Light Rain 36 2 36 2 100 100 NW 5 7 29.66 1005 5 8.0467 0.01 0.254
7:17 am 07:17 Cloudy with Light Rain 36 2 36 2 100 100 WNW 6 9 29.67 1005 5 8.0467 0.01 0.254
7:24 am 07:24 Cloudy with Light Rain 36 2 36 2 100 100 WNW 6 9 29.67 1005 5 8.0467 0.02 0.508
7:31 am 07:31 Cloudy with Light Rain 36 2 36 2 100 100 WNW 7 11 29.67 1005 4 6.43736 0.02 0.508
7:48 am 07:48 Cloudy with Light Rain 36 2 36 2 100 100 WNW 7 11 29.67 1005 3 4.82802 0.02 0.508
7:56 am 07:56 Cloudy with Light Rain 36 2.2 36 2.2 100 100 NW 7 11 29.65 1004 3 4.82802 0.02 0.508
8:22 am 08:22 Cloudy with Light Rain 36 2 36 2 100 100 WNW 7 11 29.67 1005 2.5 4.02335 0.01 0.254
8:56 am 08:56 Cloudy with Mist and Fog 37 2.8 37 2.8 100 100 WNW 8 13 29.66 1004 1.75 2.816345 0.01 0.254
9:22 am 09:22 Cloudy with Mist and Fog 37 3 37 3 100 100 WNW 7 11 29.67 1005 2 3.21868 0 0
9:41 am 09:41 Cloudy with Mist and Fog 37 3 37 3 100 100 WNW 9 15 29.67 1005 3 4.82802 0 0
9:56 am 09:56 Cloudy with Mist and Fog 38 3.3 38 3.3 100 100 WNW 8 13 29.66 1004 2.5 4.02335 0 0
10:05 am 10:05 Cloudy with Mist and Fog 37 3 37 3 100 100 WNW 9 15 29.68 1005 3 4.82802 0 0
10:29 am 10:29 Cloudy with Mist and Fog 37 3 37 3 100 100 WNW 14 22 29.68 1005 2.5 4.02335 0 0
10:56 am 10:56 Cloudy with Mist and Fog 38 3.3 38 3.3 100 100 WNW 10 17 29.66 1004 2.5 4.02335 0 0
11:20 am 11:20 Cloudy with Mist and Fog 39 4 39 4 100 100 WNW 10 17 29.67 1005 3 4.82802 0 0
11:34 am 11:34 Cloudy with Mist and Fog 39 4 39 4 100 100 WNW 10 17 29.67 1005 4 6.43736 0 0
11:56 am 11:56 Cloudy with Mist and Fog 40 4.4 39 3.9 97 97 W 12 19 29.65 1004 4 6.43736 0 0
12:23 pm 12:23 Cloudy with Mist and Fog 39 4 39 4 100 100 W 13 20 29.66 1004 5 8.0467 0 0
12:56 pm 12:56 Cloudy 42 5.6 38 3.3 85 85 WNW 16 26 29.65 1004 9 14.48406 0 0
1:08 pm 13:08 Mostly Cloudy 43 6 37 3 81 81 W 15 24 29.65 1004 10 16.0934 0 0
1:19 pm 13:19 Mostly Cloudy 43 6 36 2 76 76 W 13 20 29.65 1004 10 16.0934 0 0
1:56 pm 13:56 Cloudy 43 6.1 37 2.8 80 80 WNW 12 19 29.64 1004 10 16.0934 0 0
2:41 pm 14:41 Cloudy 43 6 36 2 76 76 W 15 24 29.66 1004 10 16.0934 0 0
2:56 pm 14:56 Cloudy 42 5.6 36 2.2 79 79 WNW 14 22 29.66 1004 10 16.0934 0 0
3:56 pm 15:56 Cloudy 42 5.6 37 2.8 82 82 W 13 20 29.68 1005 10 16.0934 0 0
4:51 pm 16:51 Cloudy 41 5 36 2 81 81 W 12 19 29.7 1006 10 16.0934 0 0
4:56 pm 16:56 Cloudy 40 4.4 36 2.2 86 86 W 9 15 29.7 1006 10 16.0934 0 0
5:31 pm 17:31 Cloudy 39 4 36 2 87 87 W 12 19 29.73 1007 10 16.0934 0 0
5:56 pm 17:56 Cloudy 39 3.9 36 2.2 89 89 W 10 17 29.72 1006 10 16.0934 0 0
6:56 pm 18:56 Cloudy 39 3.9 36 2.2 89 89 W 13 20 29.73 1007 10 16.0934 0 0
7:56 pm 19:56 Cloudy 39 3.9 37 2.8 93 93 WSW 13 20 29.75 1007 10 16.0934 0 0
8:24 pm 20:24 Cloudy 39 4 37 3 93 93 WSW 14 22 29.76 1008 9 14.48406 0 0
8:35 pm 20:35 Cloudy 39 4 37 3 93 93 WSW 13 20 29.77 1008 9 14.48406 0 0
8:56 pm 20:56 Cloudy 39 3.9 37 2.8 93 93 WSW 14 22 29.75 1008 8 12.87472 0 0
9:03 pm 21:03 Cloudy 39 4 37 3 93 93 WSW 12 19 29.77 1008 8 12.87472 0 0
9:26 pm 21:26 Cloudy 39 4 37 3 93 93 WSW 14 22 29.78 1008 8 12.87472 0 0
9:56 pm 21:56 Cloudy 39 3.9 37 2.8 93 93 WSW 13 20 29.77 1008 7 11.26538 0 0
10:42 pm 22:42 Cloudy with Mist and Fog 37 3 36 2 93 93 WNW 15 24 29.81 1009 4 6.43736 0 0
10:56 pm 22:56 Cloudy with Mist and Fog 37 2.8 35 1.7 93 93 WNW 14 22 29.8 1009 4 6.43736 0 0
11:14 pm 23:14 Cloudy with Mist and Fog 36 2 34 1 93 93 WNW 14 22 29.82 1010 5 8.0467 0 0
11:56 pm 23:56 Cloudy 35 1.7 33 0.6 93 93 W 13 20 29.82 1010 7 11.26538 0 0

Powered by AerisWeather